Tracking 32407 objects as of 5-Dec-2025
HD Live streaming from Space Station
objects crossing your sky now

DELTA 4 R/B

Track DELTA 4 R/B now!


NORAD ID: 28546
Int'l Code: 2004-050B
Perigee: 18,891.6 km
Apogee: 36,575.5 km
Inclination: 16.1 °
Period: 1,044.7 minutes
Semi major axis: 34104 km
RCS: Unknown
Launch date: December 21, 2004
Source: United States (US)
Launch site: AIR FORCE EASTERN TEST RANGE (AFETR)

Note: This is a ROCKET BODY
Your satellite tracking list
Your tracking list is empty




NASA's NSSDC Master Catalog

Two Line Element Set (TLE):
1 28546U 04050B   25338.57961597 -.00000125  00000-0  00000+0 0  9992
2 28546  16.1138 323.6549 2592605 332.3526 223.4753  1.37842933105419
Source of the keplerian elements: McCants